Weather History for Du Bois, PA

Change the Weather History Date:

Thursday, February 14, 2013

  Actual Average Record
Temperature  
Mean Temperature 29 °F 26 °F  
Max Temperature 35 °F 34 °F 55 °F (1990)
Min Temperature 23 °F 18 °F -8 °F (1979)
Degree Days  
Heating Degree Days 36 39  
Month to date heating degree days 589 559  
Since 1 July heating degree days 4170 4503  
Cooling Degree Days 0 0  
Month to date cooling degree days 0 0  
Year to date cooling degree days 0 0  
Moisture  
Dew Point 27 °F    
Average Humidity 84    
Maximum Humidity 92    
Minimum Humidity 75    
Precipitation  
Precipitation T in 0.08 in 0.73 in (2000)
Month to date precipitation 0.25 1.13  
Sea Level Pressure  
Sea Level Pressure 29.87 in    
Wind  
Wind Speed 8 mph (SSW)    
Max Wind Speed 15 mph    
Max Gust Speed 18 mph    
Visibility 4 miles    
Events Snow    
T = Trace of Precipitation, MM = Missing Value Source: NWS Daily Summary

Daily Weather History Graph

Daily Weather History Graph

Search for Another Location

Airport:

Trip Planner

Search our weather history database for the weather conditions in past years. The results will help you decide how hot, cold, wet, or windy it might be!

Date:

Astronomy

Feb. 14, 2013 Rise Set
Actual Time 7:11 AM EST 5:48 PM EST
Civil Twilight 6:42 AM EST 6:17 PM EST
Nautical Twilight 6:10 AM EST 6:49 PM EST
Astronomical Twilight 5:38 AM EST 7:21 PM EST
Moon 9:08 AM EST (2/14) 10:53 PM EST (2/14)
Length of Visible Light 11h 34m
Length of Day
10h 37m
Waxing Crescent, 21% of the Moon is Illuminated
Feb 14
Waxing Crescent
Feb 17
First Quarter
Feb 25
Full
Mar 4
Last Quarter
Mar 11
New

Hourly Weather History & Observations

Time (EST) Temp. Windchill Dew Point Humidity Pressure Visibility Wind Dir Wind Speed Gust Speed Precip Events Conditions
12:56 AM 25.0 °F 17.1 °F 21.9 °F 88% 29.82 in 6.0 mi West 6.9 mph - N/A   Mostly Cloudy
1:56 AM 25.0 °F 16.3 °F 21.0 °F 85% 29.83 in 7.0 mi West 8.1 mph - N/A   Overcast
2:56 AM 25.0 °F 14.8 °F 21.0 °F 85% 29.85 in 7.0 mi WSW 10.4 mph - N/A   Overcast
3:56 AM 24.1 °F 14.4 °F 21.0 °F 88% 29.86 in 7.0 mi WSW 9.2 mph - N/A   Overcast
4:56 AM 24.1 °F 13.7 °F 19.9 °F 84% 29.88 in 7.0 mi WSW 10.4 mph - N/A   Overcast
5:56 AM 24.1 °F 13.1 °F 21.0 °F 88% 29.91 in 6.0 mi WSW 11.5 mph - N/A   Overcast
6:56 AM 25.0 °F 15.5 °F 21.0 °F 85% 29.94 in 6.0 mi SW 9.2 mph - N/A   Overcast
7:56 AM 25.0 °F 17.1 °F 21.9 °F 88% 29.95 in 4.0 mi SW 6.9 mph - N/A   Overcast
8:56 AM 26.1 °F 17.6 °F 23.0 °F 88% 29.95 in 3.0 mi SSW 8.1 mph - N/A   Overcast
9:22 AM 26.6 °F 16.8 °F 24.8 °F 93% 29.88 in 2.5 mi SW 10.4 mph - N/A   Overcast
9:36 AM 26.6 °F 17.5 °F 24.8 °F 93% 29.88 in 3.0 mi SW 9.2 mph - N/A   Overcast
10:56 AM 28.9 °F 21.1 °F 25.0 °F 85% 29.93 in 3.0 mi SSW 8.1 mph - N/A   Overcast
11:20 AM 28.4 °F 22.2 °F 26.6 °F 93% 29.87 in 2.0 mi SSW 5.8 mph - N/A   Overcast
11:44 AM 28.4 °F 23.3 °F 26.6 °F 93% 29.87 in 3.0 mi SSW 4.6 mph - N/A   Overcast
11:56 AM 30.0 °F 23.2 °F 26.1 °F 85% 29.93 in 3.0 mi South 6.9 mph - N/A   Overcast
12:56 PM 30.9 °F 22.8 °F 27.0 °F 85% 29.93 in 5.0 mi SSW 9.2 mph - N/A   Overcast
1:56 PM 30.9 °F 22.8 °F 28.0 °F 89% 29.91 in 5.0 mi SW 9.2 mph - N/A   Overcast
2:52 PM 33.8 °F 27.0 °F 28.4 °F 81% 29.84 in 2.0 mi SSW 8.1 mph - N/A   Overcast
2:53 PM 33.1 °F 26.9 °F 28.9 °F 85% 29.90 in 2.0 mi SSW 6.9 mph - N/A   Overcast
3:18 PM 33.8 °F 27.7 °F 28.4 °F 81% 29.83 in 3.0 mi Variable 6.9 mph - N/A   Overcast
3:49 PM 33.8 °F 28.6 °F 30.2 °F 87% 29.83 in 2.0 mi SSW 5.8 mph - N/A   Overcast
3:56 PM 33.1 °F 26.9 °F 30.0 °F 89% 29.89 in 1.5 mi South 6.9 mph - N/A   Overcast
4:17 PM 33.8 °F 30.8 °F 30.2 °F 87% 29.83 in 1.2 mi Variable 3.5 mph - N/A   Overcast
4:24 PM 33.8 °F 29.6 °F 30.2 °F 87% 29.82 in 1.2 mi SSE 4.6 mph - N/A   Overcast
4:37 PM 33.8 °F 29.6 °F 30.2 °F 87% 29.82 in 2.0 mi South 4.6 mph - N/A   Overcast
4:56 PM 33.1 °F 30.0 °F 30.9 °F 92% 29.88 in 2.0 mi South 3.5 mph - N/A   Overcast
5:05 PM 33.8 °F 28.6 °F 30.2 °F 87% 29.82 in 1.8 mi Variable 5.8 mph - N/A   Overcast
5:13 PM 33.8 °F 29.6 °F 30.2 °F 87% 29.82 in 1.8 mi Variable 4.6 mph - N/A   Overcast
5:23 PM 33.8 °F 29.6 °F 30.2 °F 87% 29.82 in 2.0 mi Variable 4.6 mph - N/A   Overcast
5:34 PM 33.8 °F 27.7 °F 30.2 °F 87% 29.82 in 3.0 mi South 6.9 mph - N/A   Overcast
5:56 PM 34.0 °F 28.0 °F 30.0 °F 85% 29.89 in 7.0 mi SSW 6.9 mph - N/A   Overcast
6:56 PM 35.1 °F 30.1 °F 28.0 °F 76% 29.89 in 10.0 mi SSW 5.8 mph - N/A   Overcast
7:52 PM 33.8 °F 24.8 °F 28.4 °F 81% 29.85 in 1.8 mi SW 12.7 mph 18.4 mph 0.00 in Snow Light Snow
7:56 PM 34.0 °F 26.6 °F 28.9 °F 82% 29.91 in 1.5 mi SSW 9.2 mph 18.4 mph 0.00 in Snow Light Snow
8:04 PM 33.8 °F 25.8 °F 28.4 °F 81% 29.85 in 3.0 mi SW 10.4 mph 18.4 mph 0.00 in Snow Light Snow
8:24 PM 33.8 °F 27.0 °F 28.4 °F 81% 29.84 in 4.0 mi SSW 8.1 mph - 0.00 in Snow Light Snow
8:32 PM 33.8 °F 26.4 °F 28.4 °F 81% 29.84 in 5.0 mi SSW 9.2 mph - 0.00 in Snow Light Snow
8:56 PM 34.0 °F 26.0 °F 28.9 °F 82% 29.90 in 1.5 mi SW 10.4 mph - 0.00 in Snow Light Snow
9:08 PM 33.8 °F 27.0 °F 30.2 °F 87% 29.84 in 3.0 mi SW 8.1 mph - 0.00 in Snow Light Snow
9:20 PM 35.6 °F 28.0 °F 28.4 °F 75% 29.84 in 9.0 mi SW 10.4 mph 17.3 mph 0.00 in   Overcast
9:47 PM 35.6 °F 28.0 °F 28.4 °F 75% 29.84 in 2.5 mi SW 10.4 mph - 0.00 in Snow Light Snow
9:56 PM 33.1 °F 26.9 °F 30.0 °F 89% 29.89 in 1.0 mi SSW 6.9 mph - 0.00 in Snow Light Snow
10:04 PM 33.8 °F 27.7 °F 30.2 °F 87% 29.83 in 3.0 mi SSW 6.9 mph - 0.00 in Snow Light Snow
10:30 PM 33.8 °F 26.4 °F 30.2 °F 87% 29.83 in 6.0 mi SSW 9.2 mph - 0.00 in   Mostly Cloudy
10:56 PM 33.1 °F 26.9 °F 30.9 °F 92% 29.87 in 7.0 mi SSW 6.9 mph - 0.00 in   Scattered Clouds
11:56 PM 34.0 °F 26.0 °F 30.0 °F 85% 29.87 in 10.0 mi SSW 10.4 mph - N/A   Mostly Cloudy